Location: The Saddle
(36.8333°N, 80.3417°W)
Time: 09:36:52
(UTC-04:00)

A-11 Canister half - Pass Details

Date: 02 June 2024
Orbit: 1515 x 1685 km, 47.2° (Epoch: 17 June)

Event Time Altitude Azimuth Distance (km) Brightness Sun altitude
Rises 22:21:31 0° 203° (SSW) 4,895 11.4 -17.4°
Reaches altitude 10° 22:24:59 10° 196° (SSW) 3,893 10.8 -17.9°
Maximum altitude 22:33:54 39° 132° (SE) 2,265 9.4 -19.1°
Drops below altitude 10° 22:42:33 10° 68° (ENE) 3,787 10.9 -20.2°
Sets 22:45:51 0° 61° (ENE) 4,750 11.5 -20.6°
